Location: Columbia
(38.9520°N, 92.3340°W)
Time: 20:06:55
(UTC-05:00)

Daily predictions for brighter satellites

Satellite Brightness Start Highest point End
(mag) Time Altitude Azimuth Time Altitude Azimuth Time Altitude Azimuth
Cosmos 1892 Rocket 4.0 20:51:18 10° SSW 20:55:43 68° W 21:00:11 10° N
Meteor 1-15 Rocket 4.3 20:50:47 10° N 20:56:21 63° E 21:01:59 10° SSE
Atlas Centaur 2 3.4 20:50:54 10° SW 20:57:13 40° SSE 21:04:40 10° ESE
Cosmos 1461 2.9 20:56:12 10° NNW 21:00:29 76° ENE 21:04:32 10° SE
Resurs 01 Rocket 4.3 20:59:02 10° SW 21:02:09 19° W 21:05:18 10° NW
Cosmos 1302 Rocket 4.0 20:58:56 10° NNW 21:04:12 86° ENE 21:09:28 10° SSE
Aureole 2 Rocket 3.3 21:00:28 10° SSW 21:04:18 58° WNW 21:07:48 10° N
BREEZE-M DEB (TANK) 2.8 20:57:55 10° SW 21:04:23 65° SSE 21:06:52 10° ENE
ATLAS 3B R/B 3.6 20:57:58 10° SSE 21:04:29 31° ESE 21:10:57 10° NE
ISS -3.4 21:01:23 10° SW 21:04:38 82° SE 21:07:54 10° NE
Cosmos 1603 3.7 20:59:16 10° S 21:04:49 68° ESE 21:10:23 10° NNE
Abrixas rocket 3.5 21:02:23 10° WNW 21:05:31 34° SW 21:08:39 10° SSE
ALOS 2.7 21:03:24 10° S 21:08:01 65° W 21:12:40 10° NNW
Meteor 2-9 Rocket 4.3 21:04:20 10° N 21:10:05 88° E 21:15:55 10° S
FENGYUN 3A 4.0 21:05:28 10° S 21:10:48 69° WSW 21:16:12 10° NNW
GEOS 3 Rocket 3.7 21:07:26 10° SE 21:12:42 83° NE 21:17:57 10° NNW
Cosmos 1891 Rocket 4.4 21:10:16 10° N 21:16:24 76° E 21:22:24 10° SSE
PSLV R/B 3.6 21:13:53 10° W 21:17:24 72° N 21:20:57 10° ENE
Cosmos 1939 Rocket 3.3 21:14:54 10° SSE 21:18:55 50° ENE 21:22:56 10° N
Milstar 3 Cent rocket 4.2 21:13:14 10° WSW 21:19:40 21° SSW 21:24:01 10° SSE
Lacrosse 5 rocket 4.5 21:18:14 10° NW 21:19:59 13° NNW 21:21:47 10° N
Cosmos 1943 Rocket 4.2 21:20:37 10° NNE 21:23:15 13° NE 21:25:52 10° ENE
ERS-1 Rocket 3.0 21:18:29 10° SSE 21:23:29 86° WSW 21:28:32 10° NNW
BREEZE M DEB (TANK) 2.9 21:21:19 10° WNW 21:23:57 31° N 21:25:46 10° ENE
USA 186 3.7 21:22:20 10° SSW 21:24:38 23° W 21:26:50 10° NW
Cosmos 1943 3.6 21:21:01 10° S 21:26:16 41° ESE 21:31:34 10° NE
USA 234 4.4 21:20:29 10° E 21:26:17 35° NNE 21:32:05 10° NNW
SPOT 5 3.2 21:23:00 13° SE 21:26:40 40° ENE 21:30:43 10° N
CZ-4 SHROUD 3.8 21:28:44 16° SE 21:30:53 41° ENE 21:33:53 10° N
H-2A R/B 4.5 21:27:57 10° SSW 21:31:31 32° W 21:35:07 10° NNW
Envisat 3.1 21:31:24 12° SSE 21:36:03 65° ENE 21:41:06 10° N
Cosmos 1346 Rocket 4.0 21:34:25 17° SE 21:36:06 23° E 21:39:13 10° NE
COSMOS 2455 2.9 21:31:21 10° SSW 21:37:21 89° WNW 21:43:25 10° NNE
Cosmos 1602 Rocket 4.0 21:33:14 10° SSW 21:37:40 66° W 21:42:08 10° N
Cosmos 407 Rocket 4.2 21:34:31 11° SSE 21:38:57 32° E 21:43:34 10° NE
Cosmos 1825 Rocket 4.1 21:38:25 15° SSE 21:41:47 40° E 21:45:56 10° NNE
PSLV R/B 3.3 21:41:01 21° SSE 21:42:50 58° ENE 21:45:55 10° N
Tsikada Rocket 4.2 21:40:37 10° S 21:47:02 79° W 21:53:26 10° N
Cosmos 1812 Rocket 3.6 21:45:31 10° N 21:49:55 80° W 21:53:47 13° S
ARGOS 3.8 21:55:38 21° SE 21:58:44 40° ENE 22:03:47 10° N
H-2A R/B 3.3 21:56:57 10° SSW 22:00:54 37° W 22:04:58 10° NNW
Cosmos 1766 4.2 22:06:20 10° NNE 22:09:57 32° ENE 22:10:50 29° ESE
MetOp-B 4.1 22:06:20 21° SSE 22:09:58 89° ENE 22:15:22 10° NNW
Cosmos 2369 Rocket 2.2 22:05:08 10° NNW 22:10:49 76° ENE 22:13:56 27° SSE
Cosmos 1992 Rocket 4.1 22:07:00 10° NNW 22:12:13 76° WSW 22:15:24 24° S
Cosmos 2142 Rocket 4.5 22:07:04 10° N 22:13:22 75° E 22:17:19 24° SSE
Lacrosse 4 Rocket 1.2 22:09:49 10° SSW 22:13:51 87° ESE 22:17:57 10° NNE
USA 81 4.0 22:09:09 10° N 22:14:28 84° E 22:17:46 24° S
UNK 4.4 22:09:46 10° NNE 22:15:16 79° WNW 22:21:03 10° SSW
USA 245 4.1 22:13:38 25° SSE 22:17:09 76° ENE 22:22:11 10° N
SL-23 DEB 4.4 22:10:56 10° SW 22:17:58 70° SE 22:21:59 10° ENE
SeaSat 1 2.5 22:18:29 29° SSE 22:21:04 77° WSW 22:26:02 10° NNW
Cosmos 1634 Rocket 3.9 22:15:59 10° N 22:22:12 89° W 22:26:11 24° S
NOAA 11 4.3 22:20:26 31° SE 22:23:00 62° ENE 22:28:21 10° N
SL-08 RB Rocket 3.8 22:25:26 38° SE 22:26:57 60° ENE 22:31:25 10° N
Cosmos 1953 Rocket 3.6 22:26:34 25° SSW 22:29:07 79° W 22:33:35 10° N
Geosat 4.3 22:25:06 10° NE 22:29:56 45° ESE 22:31:13 37° SSE
YAOGAN 6 2.9 22:29:05 39° SSW 22:30:16 65° WSW 22:34:01 10° NNW
Cosmos 489 Rocket 4.5 22:25:32 10° SSW 22:31:52 88° WNW 22:38:17 10° NNE
CZ-4B R/B 4.0 22:30:36 10° N 22:35:39 61° WNW 22:40:38 11° SSW
H-2A R/B 2.5 22:36:00 35° ESE 22:37:22 43° ENE 22:42:08 10° N
Cosmos-2242 3.5 22:33:25 10° N 22:37:39 44° E 22:38:15 41° ESE
Cosmos 1805 4.5 22:36:09 10° NNE 22:39:29 28° ENE 22:39:29 28° ENE
ISS -0.2 22:39:11 10° WNW 22:41:26 17° NNW 22:43:41 10° NNE
Cosmos 2263 4.1 22:36:05 10° NNW 22:41:44 84° WSW 22:43:55 39° SSE
CZ-4C R/B 3.4 22:41:12 56° SE 22:42:00 75° ENE 22:46:03 10° N
Cosmos 2279 Rocket 3.9 22:36:52 10° N 22:43:09 78° E 22:45:52 36° SSE
CZ-4C R/B 4.2 22:45:27 12° E 22:45:27 12° E 22:46:21 10° ENE
SPOT 1/Viking Rocket 3.9 22:43:57 30° SSW 22:46:22 58° W 22:51:27 10° NNW
Atlas Centaur 2 3.3 22:39:15 10° WSW 22:46:24 45° S 22:49:13 34° SE
Cosmos 1607 4.3 22:45:44 39° SE 22:46:59 43° ESE 22:52:50 10° NE
COSMOS 2406 3.4 22:45:46 42° SE 22:47:00 49° ESE 22:52:30 10° NE
Cosmos 1932 4.3 22:42:30 14° SSW 22:47:55 77° ESE 22:54:09 10° NE
SAR-Lupe-2 4.0 22:49:00 49° ENE 22:49:00 49° ENE 22:52:17 10° N
Cosmos 1140 Rocket 3.6 22:47:56 47° SE 22:48:49 52° ESE 22:53:54 10° NNE
Cosmos 676 Rocket 4.2 22:48:02 18° SSW 22:51:58 70° WNW 22:57:18 10° NNE
ATLAS 3B R/B 3.5 22:47:19 10° SW 22:54:54 58° NW 23:02:20 10° NNE
Landsat 7 3.7 22:54:04 55° SSE 22:55:07 85° ENE 22:59:54 10° NNW
PSLV R/B 3.6 22:51:41 10° WNW 22:55:13 64° N 22:55:15 64° N
Cosmos 1953 2.4 22:55:55 10° N 22:59:43 64° ENE 22:59:43 64° ENE
NOSS 3-2 (A) 4.4 23:05:22 28° E 23:05:22 28° E 23:09:53 10° NE
Spot 4 3.9 23:04:06 55° ESE 23:04:40 59° ENE 23:09:22 10° N
CARTOSAT-1 3.4 23:05:16 76° SE 23:05:33 81° ENE 23:09:52 10° N
Cosmos 1943 Rocket 2.1 23:02:13 10° NNW 23:07:48 87° ENE 23:09:02 56° SSE
Kosmos-1675 4.2 23:06:52 32° WSW 23:08:12 60° NW 23:16:53 10° NNE
USA 234 3.2 23:06:30 43° SE 23:08:52 79° SW 23:15:29 10° NW
Terra 1.6 23:10:21 69° SSE 23:10:55 86° ENE 23:15:42 10° NNW
DMSP B5D2-2 4.0 23:06:17 10° NNE 23:11:35 80° ESE 23:12:38 58° S
Cosmos 614 Rocket 4.1 23:13:24 54° ESE 23:13:24 54° ESE 23:18:27 10° NNE
Cosmos 1656 Rocket 4.0 23:13:07 10° NNW 23:18:40 52° ENE 23:19:41 46° E
SL-27 R/B 3.7 23:19:49 38° NW 23:19:49 38° NW 23:22:40 10° N
Cosmos 1842 4.3 23:20:16 36° W 23:20:48 38° W 23:24:30 10° N
COSMOS 2487 4.5 23:23:16 22° NE 23:23:16 22° NE 23:24:48 10° NNE
Cosmos 1842 Rocket 3.6 23:30:43 10° N 23:34:46 74° NW 23:34:46 74° NW
USA 238 DEB 4.0 23:30:20 10° SW 23:37:23 67° NW 23:44:26 10° NNE
USA 238 4.0 23:30:31 10° SW 23:37:29 67° NW 23:44:32 10° NNE
IGS 5A 4.3 23:41:59 42° W 23:41:59 42° W 23:45:36 10° NNW
CZ-4B R/B 4.2 23:44:24 13° NE 23:44:24 13° NE 23:45:32 10° NNE
Cosmos 1092 Rocket 4.0 23:47:06 56° SSW 23:48:30 79° W 23:54:49 10° N
Cosmos 2208 Rocket 4.1 23:43:25 10° NNW 23:48:33 64° WSW 23:48:36 64° WSW
Cosmos 2369 Rocket 4.4 23:51:35 10° WNW 23:54:03 13° W 23:55:44 11° WSW
